Regional Weather Roundup
Issued by NWS Upton, NY

Current Version | Previous Version | Graphics & Text | Print | Product List | Glossary Off
Versions: 1 2 3 4 5 6 7 8 9 10 11 12 13 14 15 16 17 18 19 20 21 22 23 24 25 26 27 28 29 30 31 32 33 34 35 36 37 38 39 40 41 42 43 44 45 46 47 48 49 50

000
ASUS41 KOKX 271304
RWROKX

REGIONAL WEATHER ROUNDUP
NATIONAL WEATHER SERVICE NEW YORK NY
900 AM EDT SAT AUG 27 2016

NOTE: "FAIR" INDICATES FEW OR NO CLOUDS BELOW 12,000 FEET WITH NO
SIGNIFICANT WEATHER AND/OR OBSTRUCTIONS TO VISIBILITY.

NYZ071-072-176-178-NJZ106-104-271400-
NEW YORK CITY METRO AREA

CITY           SKY/WX    TMP DP  RH WIND       PRES   REMARKS
Central Park     N/A     77  59  53 MISG        N/A
LaGuardia APRT MOSUNNY   79  63  57 NE8       30.18R
Kennedy INTL   MOSUNNY   79  62  56 NE12      30.18R
Newark/Liberty MOSUNNY   78  62  57 NE12      30.18R
Bronx Bot Gard   N/A     79  61  53 W1        30.21S
Wall St Helipt SUNNY     81  63  54 NE9       30.18S
Teterboro      SUNNY     78  62  57 NE5       30.18R
$$

NYZ177-179-078>081-271400-
LONG ISLAND NEW YORK

CITY           SKY/WX    TMP DP  RH WIND       PRES   REMARKS
Farmingdale    SUNNY     78  63  59 NE9       30.18R
MacArthur/ISP  MOSUNNY   80  63  55 NE8       30.17R
Shirley        SUNNY     78  65  63 VRB6      30.18R
Riverhead      NOT AVBL
Westhampton    SUNNY     79  62  56 N8        30.19R
Southampton      N/A     79  68  69 NE3       30.14
Bridgehampton    N/A     73  66  78 N2        30.16
East Hampton   FAIR      76  64  67 CALM      30.17R
Montauk          N/A     74  65  73 N3        30.18R
$$

NYZ052-065-067-271400-
HUDSON VALLEY

CITY           SKY/WX    TMP DP  RH WIND       PRES   REMARKS
White Plains   SUNNY     78  62  57 N6        30.19R
Newburgh       SUNNY     70  66  88 CALM      30.22S
Montgomery     SUNNY     73  64  73 CALM      30.21R
Poughkeepsie   SUNNY     70  63  78 CALM      30.20R
Albany         MOSUNNY   71  62  73 CALM      30.21R
$$

NJZ001-105-106-008-010-013-015-019>022-104-271400-
NEW JERSEY

CITY           SKY/WX    TMP DP  RH WIND       PRES   REMARKS
Newark/Liberty MOSUNNY   78  62  57 NE12      30.18R
Teterboro      SUNNY     78  62  57 NE5       30.18R
Caldwell       SUNNY     75  64  68 NE5       30.20R
Morristown     MOSUNNY   75  66  73 E5        30.20R
Somerville     SUNNY     76  64  66 NW3       30.18R
Linden         FAIR      80  58  48 NE8       30.20R
Sussex         LGT RAIN  71  66  84 CALM      30.22R
Abdover          N/A     71  64  78 NE6       30.22R
Trenton        SUNNY     78  63  59 NE7       30.18R
Millville      SUNNY     78  67  68 NE7       30.17S
Atlantic City  SUNNY     79  64  60 NE10      30.16S
Wrightstown    NOT AVBL
Toms River     SUNNY     79  63  57 NE9       30.17S
Belmar         SUNNY     79  63  57 NE8       30.18S
$$

PAZ047>061-062-071-271400-
EASTERN PENNSYLVANIA

CITY           SKY/WX    TMP DP  RH WIND       PRES   REMARKS
Philadelphia   MOSUNNY   81  63  54 NE9       30.18R
Allentown      SUNNY     75  64  68 CALM      30.21R
Scranton       SUNNY     71  63  75 N3        30.23S
$$

CTZ002-004>006-009-010-012-RIZ004-006-007-MAZ004-011-015-271400-
SOUTHERN NEW ENGLAND
 IN CT

CITY           SKY/WX    TMP DP  RH WIND       PRES   REMARKS
Bradley INTL   MOSUNNY   74  62  66 NE3       30.19S
Hartford       SUNNY     76  64  66 VRB3      30.19R
Danbury        SUNNY     73  63  70 CALM      30.21S
Wtrbury/Oxford SUNNY     73  59  60 NE5       30.23R
Bridgeport     SUNNY     78  63  59 NE6       30.18R
Meriden        SUNNY     76  62  62 CALM      30.19R
New Haven      SUNNY     76  62  62 N12       30.18R
Chester        FAIR      77  63  61 N3        30.19S
Groton         SUNNY     78  63  59 N9        30.17R
Wilimantic     SUNNY     73  64  73 CALM      30.19S

 IN RI

CITY           SKY/WX    TMP DP  RH WIND       PRES   REMARKS
Providence     PTSUNNY   78  60  53 N6        30.18R
Block Island   SUNNY     75  63  66 NE7       30.18
Westerly       SUNNY     78  60  53 N6        30.18R
 IN MA

CITY           SKY/WX    TMP DP  RH WIND       PRES   REMARKS
Boston         MOSUNNY   78  59  51 NW5       30.17R
Worcester      SUNNY     75  56  51 N8        30.21S
Westfield      SUNNY     74  63  68 NE3       30.19S
Provincetown   SUNNY     72  64  76 N7        30.17R
Nantucket      SUNNY     77  62  59 N14       30.14R
$$

ANZ330-335-338-340-345-350-353-355-271400-
COASTAL MARINE OBSERVATIONS


STATION/POSITION TIME  SKY/WX   TEMP    WIND        PRES    VSBY  WAVE
                                AIR SEA DIR/SP/G                  HT/PER
                 (UTC)          (F)     (DEG/KT/KT) (MB)    (MI)  (FT/S)
NY HARB ENTRANCE 1150            75 75   20/ 12/ 14 1020.9          2/ 8
20S FIRE ISLAND  1150            74 74   20/ 14/ 16 1020.4          2/ 8
GREAT SOUTH BAY  1215            76 78   10/  8/ 12   N/A
23 SSW MONTAUK P 1150            74 75   20/ 12/ 16 1021.0          2/ 8
15 E BARNEGAT LI 1200               75                N/A           3/ 8
HUDSON CANYON    1150            79 78              1019.6          3/ 4
KINGS POINT      1200            76 76              1021.6
EXECUTION ROCKS  1200            75      10/ 10/ 12   N/A
CENTRAL LI SOUND 1215            73 74  360/  8/ 10   N/A           1
EASTERN LI SOUND 1200            79 70   20/  4/  4   N/A
ROBBINS REEF     1200            75     360/ 10/ 12 1020.9
$$


>>>>>>>>>>>>>>>>>>>>>>>>>>>> KEY <<<<<<<<<<<<<<<<<<<<<<<<<<<
>                                                          <
>     SKY/WX - Sky Condition/Present Weather               <
>     TMP    - Temperature in Fahrenheit                   <
>     DP     - Dew Point in Fahrenheit                     <
>     RH     - Relative Humidity in Percent                <
>     WIND   - Direction (from) and Speed in MPH           <
>     PRES   - Mean Sea Level Pressure (inches of Hg)      <
>     WCI    - Wind Chill Index                            <
>     VSB    - VISIBILITY IN MILES                         <
>     HX     - HEAT INDEX                                  <
>     TC     - TEMPERATURE IN CELSIUS                      <
>     VRB    - VARIABLE WIND DIRECTION                     <
>                                                          <
>>>>>>>>>>>>>>>>>>>>>>>>>>>> KEY <<<<<<<<<<<<<<<<<<<<<<<<<<<



USA.gov is the U.S. government's official web portal to all federal, state and local government web resources and services.